Location: Poughquag
(41.6090°N, 73.6820°W)
Time: 14:27:38
(UTC-05:00)

OTV 5 (USA 277) - Visible Passes

Search period start: 19 November 2018 00:00
Search period end: 29 November 2018 00:00
Orbit: 339 x 348 km, 54.5° (Epoch: 14 November)

Date Brightness Start Highest point End Pass type
(mag) Time Alt. Az. Time Alt. Az. Time Alt. Az.
23 Nov ? 05:49:22 10° SSE 05:50:28 12° SE 05:51:34 10° ESE visible
24 Nov ? 06:11:00 10° SSW 06:13:42 38° SE 06:16:25 10° ENE visible
25 Nov ? 05:01:45 10° SE 05:02:38 11° SE 05:03:32 10° ESE visible
26 Nov ? 05:23:19 11° SSW 05:25:51 36° SE 05:28:32 10° ENE visible
27 Nov ? 05:47:27 19° WSW 05:49:17 58° NW 05:52:07 10° NE visible
28 Nov ? 04:39:38 18° ENE 04:39:38 18° ENE 04:40:37 10° ENE visible
28 Nov ? 06:11:07 13° WNW 06:12:54 22° NNW 06:15:14 10° NNE visible
